Wind_Speed
10 10 10 10 9 9 9 9 9 9 9 9 9 9 9 9 9 9 9 9 9 9 10 10 10 9 9 10 11 13 15 17 17 11 8 12 12 8 7 6 9 9 6 4 2 1 4 4 3 4 4 2 2 1 1 1 1 3 3 3 1 3 3 5 6 5 3 4 7 7 6 2 1 2 1 6 8 6 6 5 3 5 6 7 11 20 24 21
10 10 10 10 9 9 9 10 9 9 9 9 9 9 9 9 9 8 8 9 9 9 10 10 9 9 9 10 11 13 16 17 15 12 11 12 11 10 8 9 10 7 5 2 1 0 3 3 3 5 5 2 2 2 1 0 1 3 3 2 3 5 4 5 5 4 3 5 8 8 5 3 3 1 1 4 5 5 7 4 4 7 7 9 14 21 22 20
10 10 10 9 9 9 9 9 9 9 9 9 9 9 9 9 9 8 8 9 9 9 9 8 8 9 9 10 11 13 14 12 8 7 6 6 6 10 10 13 11 6 4 1 1 0 2 1 1 5 5 2 1 2 2 1 1 2 3 1 5 6 4 5 6 6 5 6 8 8 5 2 3 0 2 5 6 4 6 4 4 6 6 8 9 14 19 18
10 10 10 10 10 9 9 9 9 9 9 9 9 9 9 9 8 8 9 9 8 8 9 8 8 9 9 10 12 12 10 5 2 3 4 6 2 11 15 13 10 5 4 2 3 2 2 3 4 5 4 2 3 2 0 2 1 1 3 4 6 4 3 7 7 8 7 5 6 7 4 3 2 2 3 8 8 1 4 7 6 10 12 12 9 10 15 15
10 10 10 10 10 9 9 9 9 9 9 9 9 9 9 8 8 8 8 8 8 8 8 8 7 8 9 10 11 9 5 4 2 4 6 6 1 14 17 12 9 5 3 5 3 2 2 3 5 5 4 2 3 2 2 3 2 1 3 6 6 3 3 8 4 6 6 2 3 5 1 3 1 3 6 8 8 3 5 6 6 12 16 15 13 12 12 11
10 10 10 10 10 10 9 9 10 9 9 9 9 9 9 9 9 8 8 7 7 7 7 7 7 8 9 9 8 5 2 1 4 5 7 4 5 14 15 11 9 4 4 6 3 2 2 4 5 4 3 2 0 1 4 3 2 2 4 4 5 4 5 7 2 5 4 4 5 3 2 1 5 4 4 4 4 4 4 3 6 9 14 17 16 13 12 11
11 10 10 10 10 10 10 10 10 10 10 9 9 9 8 9 8 8 8 7 6 5 6 6 7 8 9 8 4 2 2 3 5 6 7 2 8 14 14 11 8 4 6 6 3 2 3 5 4 3 3 2 2 3 4 3 1 3 4 5 5 5 7 7 4 5 4 6 8 2 3 1 7 5 3 3 4 5 3 6 8 6 9 13 13 11 11 11
11 10 10 10 10 10 10 10 10 10 10 10 9 9 8 9 8 8 7 6 5 5 6 5 6 7 9 7 2 3 1 4 6 6 4 1 7 14 15 11 8 6 7 6 3 4 3 5 3 3 3 1 3 2 3 2 1 3 5 5 4 3 7 8 7 6 4 7 7 1 3 4 6 4 5 4 6 3 4 9 9 9 9 9 10 10 10 9
11 11 10 10 10 10 10 10 10 10 10 10 9 9 9 9 8 7 6 5 5 5 5 5 5 5 7 5 2 2 2 4 8 6 0 1 5 13 14 10 9 8 7 6 6 6 4 3 3 3 2 2 2 2 2 0 2 5 5 4 4 6 7 7 8 5 4 5 4 3 4 3 2 1 4 3 2 3 8 10 9 10 10 8 8 8 9 8
11 11 11 11 10 10 10 10 10 9 9 9 9 9 8 8 7 6 5 4 4 5 4 4 4 5 5 3 3 2 2 5 10 6 3 3 5 11 12 9 10 9 8 7 8 8 5 5 4 3 3 1 2 3 2 3 2 5 4 5 7 9 7 4 6 3 4 4 5 6 3 1 2 1 3 4 2 7 10 10 9 11 10 9 8 6 7 7
12 11 10 10 10 10 10 9 9 9 9 9 9 8 7 7 6 6 5 4 4 4 3 4 5 5 4 2 4 1 2 7 10 8 3 4 5 9 10 9 11 12 11 7 10 13 7 6 4 3 1 1 1 3 3 4 2 3 2 6 8 7 5 3 4 4 1 2 5 8 2 2 3 1 4 5 4 8 11 11 9 11 9 8 7 6 6 6
11 11 10 10 10 10 9 9 9 8 8 9 9 8 6 5 5 4 3 3 3 3 2 3 4 4 4 2 3 5 4 7 8 6 1 4 4 7 8 9 10 13 13 7 9 14 9 5 4 2 2 1 2 2 2 3 2 2 2 4 9 7 5 4 4 4 0 1 2 6 1 4 2 2 5 3 6 7 10 10 9 9 7 6 7 6 5 6
11 10 10 10 10 10 10 9 9 9 8 8 9 8 7 5 4 3 3 3 2 2 2 2 3 3 3 1 4 4 4 6 8 5 1 5 5 6 7 8 8 10 11 8 5 6 9 8 5 3 3 1 2 2 1 2 2 3 3 2 6 7 6 6 4 3 0 1 2 2 2 5 6 6 5 3 8 9 9 8 7 7 6 6 6 5 5 6
11 10 10 10 10 10 10 9 9 9 8 8 8 8 8 6 3 3 2 2 2 2 2 2 3 2 1 4 4 2 4 5 8 8 5 6 7 6 6 8 9 10 12 13 7 2 5 9 5 1 2 3 3 4 3 6 4 3 2 2 3 2 4 8 4 4 2 0 5 5 2 6 7 8 5 5 8 11 10 7 7 6 6 6 6 6 6 6
11 10 10 10 10 10 10 9 9 8 8 8 8 8 8 6 4 3 2 2 2 1 1 2 3 1 2 5 4 3 6 5 6 9 7 9 8 5 5 7 10 12 13 14 10 3 2 5 4 0 3 1 2 3 4 5 4 3 2 2 4 2 4 8 4 4 2 3 6 7 1 6 6 7 6 6 7 11 10 9 9 8 8 7 6 6 6 5
10 9 9 9 9 10 10 9 8 8 8 8 8 7 6 5 3 2 2 1 1 1 1 2 1 1 1 2 3 3 3 3 6 8 8 11 10 6 3 3 5 7 11 13 10 7 4 3 2 1 1 2 4 4 3 5 4 4 3 0 3 3 3 5 4 6 3 3 4 4 2 5 4 6 5 4 6 9 9 9 9 8 9 9 7 6 6 5
10 9 9 9 9 10 10 9 8 8 9 9 9 7 5 4 2 2 1 1 2 2 2 0 1 1 2 4 4 3 2 5 9 8 8 11 12 9 3 1 1 1 4 6 4 4 3 2 0 1 2 4 3 4 4 3 3 4 3 3 2 1 2 2 4 5 6 3 3 1 2 6 5 6 5 3 2 7 8 9 9 8 8 7 6 5 6 7
9 9 9 9 9 9 10 10 9 8 9 9 9 6 2 1 1 1 1 3 2 1 1 1 1 2 2 3 3 4 7 10 10 7 7 10 12 11 4 1 2 5 5 2 1 1 0 1 2 2 3 4 3 5 3 3 2 1 1 2 2 1 0 2 3 2 6 4 3 3 4 7 7 6 4 4 1 6 8 7 6 6 6 5 5 5 5 7
9 8 8 8 8 9 9 10 10 9 9 9 9 4 1 1 2 2 2 3 1 1 1 2 0 1 2 3 5 7 11 11 7 4 4 6 8 7 2 1 3 5 5 3 3 3 2 2 3 2 2 4 1 4 5 7 5 4 3 4 2 1 2 5 4 4 3 2 1 2 5 6 6 4 2 4 3 5 4 2 4 4 5 5 4 5 6 8
8 7 7 7 7 8 8 9 10 9 9 9 7 2 2 3 3 3 1 1 3 4 4 4 4 2 4 4 4 8 10 6 1 1 2 4 6 6 2 2 4 5 3 0 3 3 4 3 1 3 5 6 6 5 5 4 4 4 4 4 3 2 2 5 4 5 2 2 1 2 4 6 6 5 5 4 3 4 5 4 4 4 5 5 6 6 7 7
7 6 6 6 6 7 7 8 9 9 9 8 5 2 2 1 2 4 4 3 6 8 7 7 5 5 8 7 4 4 4 3 3 2 2 5 6 5 1 3 4 3 3 2 2 3 5 3 4 8 8 7 5 5 4 4 4 3 5 4 1 2 2 4 3 4 3 1 3 2 2 6 6 5 5 1 4 7 9 7 6 7 6 5 6 8 7 6
6 5 5 5 5 5 6 7 8 8 7 7 4 2 2 0 3 4 2 4 6 6 7 6 3 6 9 9 8 1 3 2 6 6 3 6 3 2 1 4 5 2 3 1 2 5 5 2 8 8 5 3 3 5 5 4 4 3 3 3 1 2 3 5 3 5 5 1 4 4 4 6 7 5 5 3 4 7 8 9 10 9 9 8 8 8 7 7
6 5 4 4 4 4 5 6 7 6 6 5 4 3 2 7 8 4 1 2 6 3 3 3 3 5 5 5 6 5 4 2 3 6 6 9 2 2 4 4 4 2 1 2 2 1 2 5 7 3 6 6 3 3 6 4 3 3 3 2 2 2 1 3 4 6 4 1 1 2 4 5 6 6 4 3 4 5 5 7 8 7 10 11 10 10 10 11
6 5 4 4 4 4 5 6 5 6 6 2 3 6 9 13 13 5 1 0 4 4 3 5 4 4 3 2 6 8 3 3 3 4 6 9 3 2 4 3 4 1 2 3 6 4 5 7 5 5 5 5 2 2 5 5 1 2 3 4 3 2 3 4 4 5 4 3 3 4 4 5 4 5 5 2 1 2 4 3 6 6 7 6 5 7 11 12
5 5 4 4 4 5 6 5 4 6 5 2 3 10 13 15 14 5 1 2 2 5 3 2 2 3 3 2 6 6 1 2 5 5 6 9 6 3 1 2 3 1 4 4 6 3 7 6 3 4 2 3 3 2 3 6 2 4 3 7 7 5 4 3 2 5 5 4 4 4 2 5 5 4 5 4 4 4 3 2 6 7 5 4 5 7 9 10
5 5 4 4 4 5 6 3 4 7 4 1 6 12 13 16 13 2 3 4 2 5 3 1 1 1 1 2 3 2 4 2 6 4 5 8 7 4 1 1 2 0 4 4 3 2 4 3 4 3 3 5 3 3 5 7 5 2 4 7 7 6 5 3 2 3 2 2 3 3 2 4 6 4 5 4 6 7 5 4 5 5 4 5 7 8 8 9
6 5 4 4 4 5 4 1 5 5 1 2 9 12 15 16 9 2 3 5 2 3 1 1 1 1 1 2 3 3 2 5 3 1 2 5 3 3 1 2 1 1 3 3 1 2 3 2 5 4 6 6 3 2 5 7 7 2 4 6 8 6 5 5 5 4 2 3 3 4 3 2 4 5 5 4 5 8 7 7 6 2 3 6 7 9 9 11
6 5 4 3 3 4 3 3 5 2 0 6 11 13 17 13 2 4 4 4 2 2 1 2 2 0 2 1 3 2 2 3 2 2 2 4 3 3 1 4 4 4 2 4 3 5 2 2 3 2 5 3 3 4 7 9 5 5 4 7 7 5 5 5 6 3 1 1 3 5 2 1 4 6 5 5 4 7 7 8 8 6 5 5 7 9 11 12
5 5 4 4 4 3 3 5 4 2 4 9 12 16 15 5 2 4 5 2 2 2 1 1 2 2 3 2 0 2 2 1 1 3 3 4 2 3 2 4 6 5 0 4 5 6 3 4 5 4 3 3 6 4 7 9 3 4 6 7 5 6 5 4 5 3 3 2 4 6 1 2 4 5 5 3 2 5 6 6 6 6 8 9 8 8 9 11
5 5 4 4 4 4 5 6 3 3 8 11 14 16 7 2 4 5 2 1 1 2 1 1 1 2 3 3 4 4 1 2 2 2 2 2 2 4 3 2 5 5 1 3 2 5 4 3 2 3 3 6 4 1 3 5 3 3 5 6 6 6 5 4 3 4 4 1 6 6 2 2 3 5 4 3 2 3 5 5 5 6 8 9 10 9 7 8
4 4 4 5 5 4 5 5 4 6 9 12 15 10 2 2 4 5 1 3 2 3 3 2 3 3 5 2 3 4 2 3 5 3 1 1 4 5 2 0 3 4 3 5 3 5 7 4 2 2 2 3 5 4 2 2 3 4 4 5 4 3 4 4 4 3 3 3 6 5 1 4 2 5 3 4 5 5 5 5 5 7 8 9 8 7 6 5
4 3 4 5 5 5 4 4 6 8 10 14 13 5 4 1 2 2 2 3 2 2 2 2 3 4 4 3 3 4 3 3 4 2 1 0 1 1 1 2 2 2 3 3 3 6 5 4 4 5 3 3 5 3 3 5 5 5 4 5 3 2 3 2 3 0 2 5 4 3 1 3 4 6 4 5 7 6 4 3 4 6 6 8 6 5 5 3
4 4 4 6 7 8 6 6 7 9 12 13 7 4 6 3 1 2 2 2 1 2 0 1 2 3 3 4 4 5 3 2 4 3 1 1 1 3 3 1 4 2 1 3 1 4 4 5 5 4 3 1 5 4 1 1 2 3 4 4 3 2 2 2 3 1 3 4 2 2 1 1 3 4 3 4 6 6 3 3 4 6 6 7 7 5 6 5
4 4 5 7 8 8 7 6 7 9 12 9 4 4 4 1 2 2 1 2 2 2 2 1 3 4 4 4 3 4 3 2 4 4 3 3 3 3 4 3 1 3 2 1 1 1 0 4 4 1 2 2 2 5 5 4 3 2 4 5 4 4 3 3 4 2 3 2 2 2 1 2 2 2 4 4 5 5 5 5 6 5 6 6 6 7 8 7
5 5 7 7 6 6 5 5 7 8 8 6 6 4 2 3 3 1 2 3 1 2 3 2 3 4 4 3 3 4 2 2 4 5 3 3 2 1 1 2 2 3 4 1 2 1 1 4 6 4 2 2 1 2 4 6 3 1 3 5 2 4 4 1 3 4 3 1 1 1 2 3 3 2 4 3 5 5 5 6 5 3 4 4 7 8 8 7
4 5 5 4 4 4 5 5 6 6 4 5 6 3 2 3 2 2 2 2 0 0 2 4 4 4 3 4 3 4 2 1 4 4 3 2 1 1 1 2 2 2 5 3 2 1 1 4 6 4 2 3 2 1 2 3 1 1 2 3 3 4 7 4 1 1 3 1 3 1 2 3 1 1 3 5 5 6 5 5 4 4 5 7 8 7 7 7
6 4 2 5 6 4 5 5 4 3 2 6 5 1 3 2 2 3 1 2 0 2 4 2 2 1 1 2 2 5 3 2 3 3 2 2 1 3 4 3 1 1 2 3 3 2 2 3 6 1 1 3 4 2 4 3 4 4 2 4 2 2 4 4 1 3 3 2 4 1 2 2 1 1 1 1 3 5 5 5 4 5 6 8 7 6 6 6
8 1 3 8 10 6 5 5 3 1 4 5 2 1 2 1 2 1 2 2 1 4 4 1 1 1 1 0 3 4 2 2 3 3 2 1 1 2 4 3 2 4 2 2 1 0 2 2 7 2 1 4 6 4 3 5 3 4 3 3 2 2 0 1 2 1 0 2 3 3 2 3 3 4 4 6 6 4 3 5 5 6 6 6 6 6 6 7
7 1 2 7 12 9 5 3 1 3 5 3 0 1 1 2 2 2 2 2 1 3 2 2 1 1 1 3 3 3 2 0 0 1 1 0 1 3 4 2 3 6 4 2 2 1 2 1 5 4 2 4 5 3 1 4 4 3 3 3 2 2 3 1 2 2 2 2 2 3 3 2 4 5 6 8 7 4 1 4 5 5 6 5 5 6 6 7
5 2 1 7 15 12 5 1 2 5 4 0 3 2 1 2 3 4 3 3 1 1 0 2 2 0 2 3 2 1 1 1 3 2 1 1 1 2 4 3 3 6 5 3 3 1 3 2 3 5 5 2 1 1 3 3 1 2 2 2 1 2 2 1 1 1 2 3 2 1 2 4 5 4 5 7 6 5 3 1 3 4 5 5 5 5 5 5
3 3 2 10 17 12 4 4 3 3 2 1 1 2 2 1 2 4 5 3 2 1 1 3 4 2 2 2 2 2 1 1 1 1 1 1 1 0 2 3 2 4 4 5 4 2 1 1 2 3 4 2 4 4 3 4 3 2 2 2 2 3 3 2 1 2 1 2 3 3 2 6 4 2 4 5 4 4 3 1 1 3 5 6 5 5 5 5
3 2 4 14 19 10 4 4 1 2 3 2 0 2 3 2 1 3 4 4 3 1 1 2 3 2 3 2 2 2 2 1 1 1 2 2 2 1 2 4 4 3 2 2 2 1 1 3 2 3 4 4 7 5 0 2 3 4 2 1 3 3 4 4 3 3 0 1 2 3 1 5 5 3 3 3 3 4 4 3 1 3 5 5 5 5 6 6
2 3 5 16 19 6 5 3 3 3 1 2 1 1 2 1 1 2 3 3 3 2 2 1 1 1 1 1 1 2 2 1 3 2 2 2 2 2 3 6 5 1 3 2 2 1 1 2 2 3 4 4 6 5 4 3 4 4 1 1 3 2 3 4 4 3 2 2 2 2 2 5 5 3 2 1 2 3 3 3 2 2 4 4 5 6 6 6
1 4 4 15 18 5 4 0 1 1 3 3 4 3 2 1 1 1 2 2 2 1 1 1 1 0 0 1 2 2 1 1 1 0 1 2 1 2 4 8 5 3 3 0 1 1 1 0 1 2 4 6 6 6 5 5 3 2 1 2 1 3 5 3 2 3 1 3 4 4 4 5 4 4 4 3 4 4 3 2 2 1 3 3 4 5 5 6
2 1 3 10 17 10 4 2 3 2 2 3 3 4 3 2 1 1 1 1 1 1 1 1 1 1 2 2 3 3 2 1 1 1 2 1 2 3 5 8 6 3 2 1 1 1 1 1 2 2 2 3 2 3 3 2 1 0 2 2 1 4 5 2 2 4 1 3 3 4 3 4 5 5 5 5 4 4 4 4 3 2 2 3 3 4 5 5
2 2 3 6 10 8 2 1 3 3 1 2 2 3 1 2 4 2 1 1 1 2 2 2 2 2 4 4 3 3 3 2 1 2 2 1 2 2 4 5 5 4 4 6 5 2 3 1 2 5 5 6 5 6 5 2 1 2 1 3 3 1 4 4 4 3 4 3 2 5 3 2 5 6 6 6 3 2 3 4 5 3 3 4 3 4 5 5
2 1 2 2 4 4 3 4 4 3 0 1 0 2 1 2 4 4 2 1 1 3 3 2 3 2 1 2 3 0 2 3 3 2 1 1 3 3 4 2 3 7 6 6 5 3 4 2 2 4 5 6 6 7 4 2 3 4 3 4 6 3 3 5 4 4 4 3 4 7 6 4 7 7 7 7 3 1 4 5 4 2 2 4 3 4 5 5
3 1 1 1 1 1 2 3 3 3 3 0 1 1 3 3 3 2 3 3 3 3 2 2 5 3 0 2 3 1 1 3 2 1 0 1 2 4 5 2 2 6 5 4 4 3 5 2 3 3 3 5 4 5 3 1 3 3 4 6 7 5 5 6 7 6 6 5 7 7 8 8 7 6 8 8 4 3 4 4 3 2 1 3 3 3 4 5
2 2 2 1 1 1 1 3 3 2 3 2 1 2 3 3 3 3 3 3 4 4 2 1 3 4 3 1 4 3 2 2 1 1 1 0 1 2 3 2 2 3 5 4 3 2 3 2 3 3 3 5 4 5 3 3 2 3 4 6 6 6 8 8 7 6 7 8 9 5 7 9 7 7 9 7 4 4 3 3 2 1 1 3 3 4 4 5
2 1 3 2 3 1 2 3 3 3 3 3 2 2 2 2 3 4 3 1 1 4 3 3 2 3 3 3 4 2 4 5 2 2 4 2 2 1 1 2 3 3 5 3 1 2 1 2 1 3 1 5 5 5 3 4 4 5 6 6 5 6 7 6 5 4 4 7 8 5 6 9 7 6 6 3 1 3 2 2 3 1 1 2 3 3 2 2
3 1 1 2 2 3 2 2 3 3 2 3 1 2 2 1 2 3 3 1 2 2 3 1 1 0 3 5 4 3 3 4 5 5 6 5 2 3 2 2 3 2 4 1 1 2 1 1 1 3 2 4 3 5 7 4 3 6 8 6 7 7 6 5 5 5 6 6 7 5 5 7 6 4 4 3 1 4 4 5 3 1 2 4 5 3 1 2
6 2 3 3 0 3 3 2 3 3 1 2 2 2 2 3 4 2 1 2 4 5 3 1 2 2 3 4 4 5 7 5 6 6 6 5 2 3 3 2 4 2 1 1 1 1 3 2 1 2 2 4 3 5 5 3 5 7 7 8 12 11 9 6 4 4 7 6 5 6 6 6 5 4 5 3 2 2 3 5 3 2 3 3 2 1 2 4
Wind_Direction
333 333 329 328 328 325 318 313 311 311 315 312 312 316 314 316 313 315 315 308 308 308 312 312 309 313 317 322 322 321 321 318 316 312 269 264 275 265 254 222 194 194 213 250 276 331 27 53 47 32 86 87 11 6 14 1 104 65 85 104 196 200 193 200 196 205 203 281 287 320 333 151 98 10 85 63 71 96 85 48 38 36 43 83 105 124 135 143
336 335 331 330 328 322 316 315 316 315 315 313 312 310 309 311 310 313 313 311 307 306 311 309 314 319 319 324 323 323 322 320 313 291 271 275 272 257 228 196 190 191 206 246 298 89 60 20 346 37 56 50 343 354 29 341 113 107 116 122 221 205 213 208 203 232 220 277 291 309 313 156 133 138 68 91 112 111 95 50 43 69 67 86 105 121 131 138
338 336 333 331 327 323 321 320 319 315 313 311 309 308 308 308 309 312 311 310 307 308 309 309 318 320 322 326 323 325 321 320 313 278 294 325 263 231 199 187 190 192 214 224 27 97 99 60 37 66 56 37 346 358 30 9 186 166 127 176 245 214 236 243 225 244 239 271 295 302 299 130 127 52 55 117 118 103 126 138 107 120 135 122 119 124 130 136
339 338 336 334 330 326 324 321 318 315 313 309 307 307 305 306 307 306 307 307 307 311 310 312 319 320 327 328 324 322 321 334 307 280 350 355 263 183 176 187 193 200 227 168 89 88 95 74 63 66 69 34 331 357 351 262 202 164 141 199 238 195 245 260 228 249 261 256 267 290 311 118 125 65 117 137 120 64 212 206 181 159 159 144 139 137 136 141
340 338 337 335 331 327 324 321 318 318 313 308 306 304 303 303 301 301 304 305 307 310 313 315 319 325 331 329 327 319 336 40 277 304 358 1 142 167 171 182 185 186 193 157 129 113 72 61 61 53 58 40 341 17 249 246 135 163 224 210 225 178 246 270 221 239 262 260 281 301 326 148 114 96 147 157 146 197 238 224 197 162 158 154 151 148 144 147
339 337 335 332 330 329 326 323 320 318 313 310 307 304 304 301 301 304 303 303 304 305 311 319 326 334 336 331 328 322 12 34 284 320 348 12 147 167 170 176 172 157 154 153 135 95 76 58 57 60 59 34 243 210 250 269 114 200 273 253 242 207 231 272 213 222 274 328 303 288 275 137 91 123 188 200 189 262 290 149 159 164 158 152 148 150 152 155
338 336 334 331 331 330 328 324 319 316 312 309 306 304 303 301 301 302 300 297 294 302 314 326 340 342 340 337 320 347 58 261 290 339 344 27 159 171 172 172 166 158 161 152 111 90 85 71 72 117 98 15 217 220 252 284 130 179 263 280 267 218 222 261 253 248 277 282 271 279 309 202 137 153 189 239 271 299 322 112 123 133 137 140 143 151 152 153
337 337 333 331 330 327 325 322 320 318 314 308 304 300 298 297 295 296 296 292 292 311 319 332 351 347 345 349 322 347 347 263 313 339 328 64 162 176 176 171 176 185 166 169 178 158 122 96 127 145 91 316 184 214 259 305 350 189 226 269 281 231 234 262 272 267 245 253 266 316 309 236 182 160 158 229 297 348 94 105 109 115 122 136 145 149 147 147
335 334 332 329 327 326 326 325 325 321 316 310 304 298 294 293 293 297 294 292 305 311 318 340 351 352 349 350 48 18 290 296 349 357 323 138 158 174 180 177 183 186 162 191 206 177 175 157 187 183 159 239 183 261 270 163 284 215 213 261 275 271 270 273 278 260 195 235 237 206 293 285 238 147 164 243 316 108 112 107 117 127 137 148 150 152 151 149
334 332 330 327 329 333 333 333 331 326 322 316 309 302 296 295 293 295 294 297 305 300 316 345 345 355 346 341 61 47 299 348 10 29 124 158 153 164 178 186 184 180 170 193 195 177 175 181 189 164 155 216 211 252 213 150 210 204 214 263 261 274 282 261 274 270 170 229 191 179 248 294 338 14 203 267 155 134 112 113 131 139 153 159 152 152 146 148
332 332 330 331 335 337 337 339 340 336 330 326 324 316 303 298 293 291 291 290 290 293 321 341 347 2 353 28 88 176 306 4 16 36 109 174 161 165 172 180 183 182 178 184 201 199 181 166 149 92 134 256 250 265 228 192 218 221 251 295 293 298 291 260 292 302 191 222 171 158 167 16 5 20 237 254 165 137 124 133 146 150 161 158 151 149 145 159
332 333 333 335 337 337 341 344 346 346 342 342 341 336 322 305 297 294 282 279 285 291 311 338 352 2 5 35 181 225 303 344 352 16 93 190 180 178 177 179 186 187 184 184 213 212 197 170 115 86 244 261 321 310 232 220 252 295 32 315 308 346 356 337 331 310 204 152 157 148 110 339 282 232 272 250 143 125 125 140 150 155 160 154 159 159 158 170
335 336 334 335 337 339 345 348 352 351 351 353 350 348 343 322 305 297 274 263 262 283 301 355 351 354 26 319 238 248 297 312 317 328 245 212 210 195 197 203 208 209 210 218 230 216 210 204 167 185 221 159 274 277 80 13 347 319 29 58 317 1 4 339 347 338 41 132 29 134 233 289 262 262 277 203 137 122 123 141 153 154 158 163 172 168 173 179
337 337 333 335 338 340 345 352 356 356 356 353 349 349 345 336 309 275 260 250 231 264 289 31 6 19 70 263 266 323 298 294 294 284 256 221 217 218 227 226 228 229 232 241 249 260 224 208 181 192 224 174 245 287 354 6 12 329 348 52 4 32 308 314 324 347 348 178 43 72 231 265 272 278 248 180 148 140 141 155 157 157 170 176 183 179 187 196
337 334 333 334 335 338 347 355 357 359 360 349 345 342 337 335 306 264 240 238 233 265 318 27 0 10 5 288 279 311 299 300 289 279 265 234 221 223 227 225 236 236 237 247 245 230 178 171 151 112 249 237 40 13 345 349 7 17 21 327 353 53 303 313 337 9 343 306 31 76 243 274 277 273 227 178 158 150 152 165 165 170 179 181 188 188 193 204
332 331 331 331 332 336 343 355 359 357 354 349 346 337 326 326 302 261 234 219 187 124 54 30 354 90 39 302 321 343 312 304 312 298 260 239 231 212 180 195 241 241 240 252 250 235 215 149 129 114 228 15 56 71 30 11 354 355 57 22 323 32 354 326 353 359 2 322 354 83 214 274 313 305 267 199 164 155 155 169 173 174 182 187 191 188 189 196
329 328 327 328 331 334 339 352 358 351 346 348 350 340 324 326 312 272 243 147 135 156 124 64 331 18 277 276 312 337 324 314 321 307 246 232 233 219 184 85 64 333 263 258 247 222 214 162 89 347 46 43 65 84 44 1 335 324 24 65 289 342 30 335 331 343 20 15 299 4 232 250 306 323 294 275 164 154 164 179 182 181 188 192 190 191 190 192
325 323 324 326 328 332 338 346 349 349 346 345 352 355 343 31 73 47 72 112 112 137 134 270 339 22 278 288 307 298 307 310 315 305 241 225 229 226 225 45 22 3 3 9 45 93 76 350 48 33 13 9 30 77 101 225 185 223 261 72 337 315 310 299 277 307 22 22 274 320 278 265 306 328 308 300 259 176 188 185 176 179 180 182 188 201 203 204
321 319 321 324 327 331 336 340 341 344 346 346 351 11 107 100 81 63 70 94 87 316 279 248 209 46 246 264 290 304 311 310 305 285 229 213 212 208 206 50 34 20 30 25 344 12 46 25 41 46 331 310 260 135 174 208 169 163 183 139 131 109 270 266 256 273 358 52 309 284 256 274 307 308 273 267 228 199 217 175 156 165 162 177 193 204 211 215
321 318 319 323 326 328 331 332 335 341 348 348 345 32 82 27 22 349 323 172 207 224 247 223 191 259 279 264 296 323 322 321 325 208 204 199 169 141 88 18 39 35 40 271 297 353 70 66 14 212 228 243 230 193 181 185 145 125 118 122 156 162 280 278 268 290 315 107 316 241 235 269 273 250 252 250 203 217 241 210 191 186 173 188 199 210 217 222
325 322 321 326 323 323 326 327 335 342 347 349 356 69 104 62 27 329 307 281 238 217 231 233 201 240 269 267 293 347 351 344 339 318 193 178 145 125 348 17 63 13 318 223 262 353 54 65 244 225 220 228 217 182 154 132 114 108 131 134 174 188 244 265 252 308 341 110 271 312 321 284 269 258 271 252 169 213 223 209 207 203 195 199 203 212 217 222
333 330 333 331 319 319 324 328 339 345 350 2 20 93 153 301 316 286 284 311 281 220 216 242 238 259 268 267 263 245 76 5 317 312 170 146 111 159 246 59 106 211 301 19 351 356 20 289 253 243 206 149 105 136 132 120 108 89 128 136 289 254 276 290 295 333 359 50 277 337 12 291 278 280 258 199 191 232 228 210 210 201 192 197 200 204 208 214
337 343 354 338 325 329 331 337 346 354 5 15 37 75 26 356 343 304 187 302 295 262 202 214 212 243 273 275 226 160 113 175 283 296 181 147 110 180 146 88 123 167 13 77 134 55 330 253 240 218 147 129 82 104 115 110 100 89 120 140 267 272 316 294 302 327 347 47 264 31 18 298 301 321 289 199 200 259 271 235 233 217 200 202 199 196 199 204
344 0 8 351 349 348 343 348 359 10 10 33 64 28 4 357 354 346 172 310 303 294 237 204 197 207 245 276 167 149 134 186 197 275 185 146 116 146 152 142 128 127 242 159 138 161 250 242 189 125 128 148 140 106 117 132 246 296 161 165 208 229 202 218 278 327 349 12 41 57 12 314 328 339 303 298 164 291 328 293 264 253 229 222 214 206 206 207
355 14 21 17 17 3 354 2 21 15 9 88 42 358 355 350 345 348 84 43 329 295 277 213 231 221 205 130 159 169 109 209 215 228 177 151 143 135 176 176 125 212 223 152 124 172 259 258 157 119 88 112 147 205 183 160 189 304 240 199 189 176 188 212 347 20 29 351 347 35 359 292 320 317 269 305 350 324 328 292 256 259 252 229 223 217 213 215
1 20 41 36 31 17 9 29 21 5 3 65 354 343 345 340 336 359 107 43 355 296 318 316 332 285 231 132 173 163 57 299 249 206 167 172 161 121 112 243 45 261 188 147 131 188 258 306 61 104 108 97 119 250 236 166 132 297 244 199 166 131 131 135 99 84 85 273 305 47 150 254 316 315 271 313 335 308 301 282 261 261 248 227 229 227 216 215
0 17 41 36 36 22 15 28 356 358 50 335 336 337 336 333 334 137 89 36 351 294 338 291 330 58 273 199 163 111 80 281 293 77 164 178 162 69 121 233 11 172 170 119 357 261 229 313 26 65 88 86 101 264 235 153 121 232 231 146 131 127 144 157 141 135 189 244 320 16 111 200 297 279 279 333 338 317 319 305 299 301 233 231 236 235 225 218
357 3 19 20 15 6 3 354 336 343 69 325 330 334 331 330 346 128 76 66 278 292 57 282 280 271 306 199 153 137 226 283 32 328 292 140 147 53 69 227 182 180 160 114 246 271 220 253 302 82 77 78 208 219 193 153 142 239 192 121 126 137 147 145 125 122 23 46 311 322 44 163 273 275 306 359 354 312 308 300 310 335 313 277 254 240 230 224
355 350 356 353 346 345 343 335 316 287 323 330 333 329 325 329 105 80 67 106 265 306 121 318 308 285 333 28 344 340 334 346 90 280 339 92 136 67 108 212 152 147 79 112 207 256 240 228 225 140 106 227 230 218 179 159 187 223 130 93 72 74 80 88 103 106 47 59 245 271 274 189 268 287 306 340 349 286 285 292 302 321 324 314 294 269 241 228
353 341 344 344 341 343 335 328 317 322 331 334 330 325 328 85 77 59 61 206 273 303 276 354 323 315 14 32 335 344 339 284 317 324 5 75 347 35 121 188 100 114 339 27 233 255 290 280 202 146 182 203 179 133 165 146 135 137 95 64 51 43 40 49 61 85 71 339 253 255 231 178 269 284 263 250 259 274 282 304 317 323 325 311 297 291 265 233
348 342 337 342 345 343 335 332 341 341 333 330 328 331 50 81 55 85 147 248 266 320 0 352 309 11 35 32 330 347 343 318 339 354 348 330 351 24 88 12 47 63 7 357 318 305 335 332 248 261 242 166 109 75 47 46 75 101 78 65 70 3 14 32 357 47 95 260 265 268 223 135 208 267 272 283 301 297 266 266 301 315 315 304 294 302 296 247
332 335 331 339 338 331 327 321 331 336 327 325 333 9 94 24 15 124 266 301 292 300 0 301 300 11 15 15 12 338 331 345 351 19 58 20 343 276 189 189 182 17 341 297 317 340 323 264 269 303 294 139 112 90 14 7 36 75 78 74 80 342 12 14 304 346 190 244 257 267 241 142 222 249 270 305 314 308 273 236 273 287 300 310 312 327 341 326
308 323 329 331 326 323 320 310 316 319 317 325 346 58 79 70 203 217 277 338 258 262 271 285 331 17 26 33 7 326 347 10 350 12 1 20 36 284 308 130 148 115 285 238 329 357 319 302 327 334 302 83 122 144 210 333 67 119 137 123 121 113 69 294 270 266 256 263 275 270 263 276 275 264 257 285 302 307 336 358 294 277 286 308 329 11 32 19
285 305 311 313 322 327 319 302 302 307 319 340 41 72 64 104 224 213 252 268 254 308 356 14 349 14 45 51 337 334 24 350 343 17 4 17 33 323 332 3 70 104 116 165 217 138 311 302 303 234 274 333 113 168 169 147 137 173 162 133 141 158 154 232 229 198 242 266 319 305 249 188 205 257 264 274 301 315 348 335 296 286 290 302 345 27 42 28
282 286 292 300 324 340 329 305 298 307 327 15 69 72 106 209 254 191 229 261 270 326 329 11 49 47 22 350 328 357 50 309 346 27 19 18 36 296 323 330 327 97 117 146 239 179 137 259 262 265 280 8 45 191 143 110 95 248 146 113 149 183 152 179 194 168 180 183 291 262 230 218 203 266 295 330 340 334 340 316 301 322 330 1 25 24 31 28
302 296 296 312 349 4 354 333 307 307 338 62 69 66 169 211 236 167 213 272 72 303 334 1 45 68 352 324 330 346 15 6 5 26 6 5 33 280 277 274 293 113 134 163 212 176 85 275 282 307 342 13 351 248 100 97 165 188 136 157 214 170 123 117 204 51 77 154 256 238 232 283 341 337 337 10 341 319 327 318 322 354 11 45 43 17 21 24
334 327 15 23 15 3 355 349 319 311 41 79 84 167 217 214 189 180 262 314 317 94 79 26 5 79 324 321 308 315 351 21 13 23 339 340 12 322 324 305 303 84 150 187 218 193 147 270 294 347 84 333 335 18 33 43 127 124 172 210 205 102 92 109 161 7 44 199 269 296 201 237 123 206 278 9 287 290 313 320 344 14 27 47 37 13 22 23
340 6 91 32 10 343 338 349 328 5 70 72 77 238 226 190 195 205 318 317 341 71 83 134 283 131 182 212 277 286 341 8 356 16 336 330 32 357 356 325 327 12 18 133 125 22 123 266 296 306 192 303 348 32 1 347 59 117 171 188 116 120 191 59 128 145 168 218 282 311 273 229 200 214 200 184 211 242 324 342 12 28 29 38 25 13 21 26
351 47 107 14 4 347 330 323 323 64 66 64 141 246 233 236 272 294 317 326 79 83 92 210 225 43 177 177 222 271 341 60 141 44 347 303 62 36 34 331 311 350 359 104 118 327 79 112 282 295 282 303 358 36 254 303 346 24 49 29 33 133 161 164 136 162 187 205 254 304 314 263 227 226 190 179 201 214 335 10 24 21 15 22 16 16 25 31
8 44 229 348 358 351 340 20 57 59 60 129 195 208 262 268 297 306 316 359 66 124 189 205 194 2 239 212 208 250 17 144 154 126 233 224 36 6 16 4 317 333 348 53 85 45 48 88 246 293 326 331 320 259 192 190 256 10 18 353 353 79 102 102 85 113 139 163 190 211 286 267 248 232 188 175 192 209 196 112 41 4 1 4 2 13 28 36
19 39 283 343 351 345 17 72 47 55 93 132 174 243 299 329 317 309 317 5 42 235 167 160 172 173 196 217 234 215 116 103 149 145 216 236 77 322 7 17 297 305 355 32 36 24 36 120 187 287 332 308 245 246 187 171 169 149 178 202 170 133 101 79 329 320 74 137 176 163 233 268 260 230 209 187 187 216 222 182 59 8 1 356 349 353 9 28
54 30 309 350 348 340 55 73 356 52 119 149 152 256 298 343 346 317 319 353 20 1 47 108 156 166 175 193 212 181 136 138 200 161 195 169 118 167 310 333 294 274 49 35 334 297 136 104 108 269 269 245 254 271 74 142 135 117 124 130 132 133 120 133 208 254 279 134 162 139 193 269 266 246 229 210 211 236 253 250 259 2 354 350 347 343 357 12
74 277 312 357 351 344 76 48 311 27 46 256 303 265 257 309 324 339 340 351 6 3 4 11 173 171 201 196 162 162 165 202 188 176 187 144 126 221 297 330 324 28 66 31 311 321 102 80 50 297 295 300 301 327 19 45 86 96 41 68 118 144 140 156 177 177 189 196 152 140 245 266 278 282 258 251 288 283 269 235 216 338 343 354 2 357 1 3
321 255 286 1 2 22 114 178 257 29 310 312 354 333 308 270 205 5 338 316 322 346 16 347 243 168 36 76 94 136 179 211 192 235 118 124 186 264 342 358 6 60 68 238 230 264 300 65 87 14 334 331 337 349 353 354 39 116 292 327 108 106 96 102 96 84 155 216 164 166 234 252 274 315 341 345 335 323 307 266 216 265 337 8 17 12 8 5
346 296 268 355 17 46 117 168 146 145 311 355 357 324 326 319 268 219 208 258 307 138 134 308 302 49 45 45 45 38 49 70 305 341 54 69 293 301 359 4 14 42 36 51 127 175 188 182 143 137 240 251 272 280 266 282 313 22 314 295 259 103 103 113 83 90 184 242 174 167 217 271 287 317 331 320 332 340 320 315 310 295 346 3 9 15 15 16
24 12 306 335 15 44 83 79 89 109 77 36 346 310 1 327 302 293 179 164 11 78 90 346 337 34 39 44 47 19 14 14 7 55 58 348 286 286 333 354 12 7 9 34 39 83 123 164 178 161 188 204 205 227 225 188 217 270 281 262 255 140 108 106 102 132 191 195 203 211 200 278 282 282 293 292 319 357 287 300 324 333 348 344 345 4 10 14
65 65 16 343 345 19 31 12 36 53 10 124 261 312 1 334 311 322 0 45 45 58 66 18 15 50 76 76 87 76 338 358 13 75 83 298 266 284 315 349 17 359 5 20 11 63 92 339 244 165 202 218 208 230 238 158 212 226 200 227 250 248 113 122 161 200 170 136 260 246 196 204 250 249 255 265 284 296 253 269 295 291 332 342 350 8 13 14
49 112 79 49 299 346 18 347 3 14 347 242 177 343 17 13 350 327 329 354 25 37 53 10 11 24 186 153 126 139 337 357 0 27 65 329 313 325 341 13 17 358 16 19 354 72 112 255 236 172 254 264 238 250 256 200 250 247 198 212 230 217 175 183 206 199 156 178 245 230 183 206 237 235 237 237 224 234 250 260 258 237 338 356 18 40 31 19
43 65 327 3 64 202 260 318 348 34 10 359 5 22 40 24 355 304 288 345 359 356 54 95 322 329 339 75 124 136 208 199 321 303 206 151 355 343 351 345 298 349 37 44 355 71 126 249 228 168 291 300 276 263 237 194 249 294 247 225 221 211 204 208 222 206 183 218 244 210 195 224 230 219 225 217 193 216 257 288 269 239 340 345 38 58 38 14
48 43 323 12 34 330 292 341 26 74 20 4 17 17 31 29 354 319 295 22 351 325 29 94 243 289 347 42 104 140 213 178 162 241 183 151 337 262 234 249 245 334 22 60 328 3 95 264 238 124 318 293 284 289 259 193 200 247 258 248 235 237 235 228 232 213 198 244 256 227 225 249 248 228 235 259 196 172 171 246 246 219 215 184 111 88 48 352
10 255 341 66 15 344 347 353 41 82 27 6 20 341 334 327 349 338 294 254 94 19 356 41 186 148 29 43 65 357 290 182 178 209 182 169 211 204 206 214 192 317 350 70 234 358 87 253 352 69 307 266 250 275 277 271 262 255 253 245 231 232 231 220 215 193 186 224 251 245 242 253 252 227 234 286 297 150 176 225 238 257 216 155 127 112 64 334
6 324 22 78 300 348 8 353 25 77 93 349 333 311 300 289 316 0 281 300 48 45 353 333 118 104 48 40 37 338 308 259 231 232 198 180 208 206 215 210 165 176 254 188 240 257 156 190 196 122 246 257 231 240 263 327 317 270 243 222 219 220 221 230 247 227 202 200 218 233 240 243 228 174 164 199 191 161 224 236 199 204 237 196 152 159 329 319
Height
789 788 788 787 786 786 785 784 783 782 782 781 781 780 780 779 778 778 777 777 776 776 775 775 774 773 772 771 770 769 768 766 765 765 764 758 756 758 759 760 761 762 763 764 764 765 765 766 766 766 765 766 769 769 769 770 770 773 780 788 789 789 786 779 776 772 769 766 761 759 760 761 760 758 754 754 759 761 764 767 767 767 766 766 767 767 770 773
789 788 787 786 786 785 784 783 782 782 781 781 780 780 779 778 778 777 777 776 776 775 775 774 773 772 771 771 770 769 767 765 764 763 758 754 755 757 758 760 761 762 763 764 764 765 766 766 766 765 766 768 771 770 770 770 770 775 784 789 786 782 778 772 769 766 766 765 761 759 759 759 760 760 756 760 767 763 765 771 771 771 771 770 769 770 772 774
788 787 786 786 785 784 783 782 782 781 781 780 780 779 778 777 777 777 776 776 775 775 774 773 773 771 771 770 769 768 767 766 762 758 754 753 753 754 757 759 760 762 763 764 764 765 766 766 765 766 768 770 772 771 770 771 772 775 781 786 780 775 773 769 767 764 763 763 761 759 757 757 758 757 758 764 769 765 766 770 769 772 774 772 771 772 773 775
788 787 786 785 784 783 782 782 781 780 780 779 779 778 777 777 777 776 776 776 775 774 773 773 772 771 771 770 769 768 767 766 759 754 753 753 752 753 756 759 760 762 763 764 764 765 765 766 765 766 769 771 774 773 771 771 772 775 778 779 774 773 773 766 764 764 762 763 762 760 757 758 757 756 760 763 768 770 766 762 761 765 770 771 772 773 774 776
787 786 785 784 783 783 782 781 780 780 779 778 778 777 777 776 776 776 775 775 774 774 773 772 771 771 770 769 769 768 767 766 758 753 753 753 752 754 756 758 761 762 762 764 765 765 765 766 766 768 771 773 774 773 772 770 771 774 774 772 769 772 772 763 762 763 760 761 761 760 758 757 756 757 761 761 764 766 761 758 758 760 762 765 769 772 774 777
786 785 785 784 783 782 781 780 780 779 778 778 777 776 776 775 775 775 774 774 774 773 772 772 771 771 770 769 769 767 768 765 756 753 754 753 754 755 757 759 761 762 762 764 765 766 766 767 767 770 774 774 776 774 772 771 770 773 772 768 767 769 769 762 761 761 759 760 759 759 758 756 757 760 761 760 760 760 757 756 759 760 760 761 765 770 773 777
786 785 784 783 782 781 780 780 779 778 778 777 776 776 775 775 775 774 774 773 773 772 772 771 771 770 770 769 768 768 768 762 754 754 754 754 755 755 758 759 761 762 763 764 765 766 767 768 769 772 775 774 776 774 771 770 770 774 773 767 765 767 766 761 760 761 760 760 757 757 758 756 756 759 761 760 758 759 757 756 760 763 764 765 768 771 773 777
785 784 783 782 781 780 780 779 778 777 777 776 775 775 775 774 774 773 773 772 772 772 771 771 771 770 770 769 768 768 766 759 754 754 754 754 755 755 758 759 761 762 763 764 765 767 767 768 769 771 775 774 775 774 771 771 771 772 771 766 765 765 763 760 759 761 761 760 756 756 758 757 755 757 760 759 758 759 758 758 762 765 768 770 771 773 776 779
784 783 782 781 780 779 779 778 777 776 776 775 774 774 773 773 772 772 772 771 771 771 771 771 771 770 770 769 769 767 761 755 754 753 753 754 755 756 757 759 761 762 763 765 765 766 767 768 769 769 773 774 774 773 770 772 772 769 767 765 764 762 760 759 758 759 760 758 756 757 758 758 757 758 759 759 760 760 760 761 764 767 770 773 774 776 777 780
783 782 782 781 780 779 778 777 777 776 775 774 773 773 772 772 772 771 771 771 771 771 771 771 770 770 770 769 770 765 757 754 754 753 754 754 755 756 757 759 760 761 763 764 764 765 765 766 767 767 769 772 772 772 770 770 770 766 765 764 762 762 760 759 757 757 759 756 755 757 759 759 759 761 761 760 761 761 762 765 767 768 772 774 775 778 779 781
783 782 781 780 779 779 777 777 776 775 775 774 773 772 771 771 771 771 771 771 771 771 771 771 770 770 770 770 770 763 755 754 754 753 755 755 756 756 757 759 759 761 762 763 763 763 764 765 766 767 770 771 770 770 768 766 765 764 764 763 761 760 759 759 757 757 757 754 755 756 758 761 761 761 762 762 762 762 763 767 769 770 773 775 777 779 780 782
782 781 780 779 779 778 777 777 776 775 774 773 773 772 771 771 770 770 770 770 770 770 770 771 771 770 770 770 768 760 753 754 754 754 756 755 757 757 758 759 759 760 760 761 762 762 764 765 765 769 771 770 771 771 766 763 763 763 764 765 761 757 757 758 758 758 756 754 755 755 762 765 762 762 764 764 764 764 766 769 771 772 774 776 778 779 781 781
781 780 780 779 778 777 777 776 776 775 774 773 773 772 771 770 770 770 770 770 770 770 770 770 770 770 771 767 760 755 754 754 754 754 756 756 757 758 758 759 759 760 760 760 761 762 764 765 766 768 768 770 771 768 763 763 763 763 765 768 767 763 762 760 759 758 756 758 756 757 770 769 760 763 766 765 765 765 770 773 773 775 776 778 778 780 781 781
780 780 779 778 777 777 777 776 776 775 774 773 772 772 771 770 770 770 770 770 770 770 770 771 771 771 770 763 754 754 754 754 754 754 755 755 757 757 758 759 759 760 760 760 761 762 763 764 766 767 767 769 767 763 764 765 765 767 768 772 778 776 768 761 760 759 756 758 754 757 774 769 759 763 766 765 764 765 770 774 775 777 778 779 779 780 781 781
780 779 778 778 777 777 776 776 775 775 774 773 772 772 771 770 770 770 770 770 770 770 770 771 771 771 770 761 753 754 754 753 754 753 754 755 755 757 758 758 759 759 759 760 761 762 763 764 766 767 767 764 764 767 770 769 769 774 774 778 785 781 772 764 762 763 761 759 754 760 774 767 760 764 764 764 764 764 769 773 775 777 778 779 780 780 780 781
779 778 777 777 776 776 776 776 775 774 773 772 772 771 770 770 770 770 770 770 770 770 771 771 771 772 769 760 753 753 753 753 753 753 753 753 754 756 757 758 758 759 760 760 760 762 763 764 766 768 766 765 769 771 774 776 776 780 781 781 785 781 778 771 764 765 765 762 758 762 772 766 762 766 765 766 766 765 770 772 774 776 777 778 779 780 780 781
778 777 777 776 776 776 775 775 775 774 773 772 771 770 770 770 769 770 770 770 770 770 771 771 771 772 765 755 753 755 753 753 752 752 752 752 754 755 756 758 758 759 759 758 760 761 762 764 767 768 769 773 775 773 780 787 784 784 784 785 789 787 784 778 771 769 767 766 765 764 769 765 765 770 768 768 769 768 770 772 774 776 777 779 779 780 781 781
777 776 776 776 775 775 775 774 774 773 772 772 771 770 770 770 770 770 770 770 771 771 771 771 771 772 764 755 755 756 753 752 752 752 752 752 753 755 756 757 758 758 759 760 761 761 762 765 768 770 773 775 776 776 784 789 784 784 783 784 789 789 787 783 775 771 770 770 770 769 769 767 768 770 769 770 770 770 770 772 774 776 778 780 782 782 782 781
776 776 775 775 775 774 774 774 773 773 772 771 771 770 770 770 770 770 771 771 771 769 769 768 767 768 764 757 755 754 752 751 751 751 752 752 753 755 757 758 759 760 762 764 763 763 765 767 771 775 777 776 775 777 780 781 779 780 783 784 785 784 784 780 773 773 775 772 771 775 773 770 770 767 766 768 769 770 772 773 775 777 779 780 782 782 782 781
775 775 774 774 774 774 774 773 773 772 772 771 770 770 770 771 771 770 771 770 768 765 763 763 763 762 760 756 754 754 752 751 751 751 751 752 753 755 757 758 761 763 765 768 767 767 769 773 778 779 777 775 775 779 780 781 782 781 783 785 785 785 780 775 771 773 776 772 772 778 776 773 770 765 765 767 769 771 772 774 775 776 778 780 781 782 781 781
774 774 774 774 773 773 773 773 772 772 771 771 770 770 771 773 775 774 770 766 762 761 761 760 760 760 756 754 754 754 754 753 751 750 751 752 752 756 760 761 765 768 771 774 772 769 771 776 778 774 773 774 777 783 783 784 785 781 782 783 783 786 779 772 773 775 776 771 772 777 773 768 766 765 768 770 769 769 769 772 774 775 777 778 779 780 781 780
774 774 773 773 773 773 772 772 772 772 771 771 770 771 772 773 773 773 772 769 761 757 759 759 759 759 754 753 754 754 757 757 753 750 750 752 753 758 762 763 767 770 772 774 774 774 776 776 773 771 776 780 781 785 784 783 784 782 783 781 780 784 781 774 773 776 777 772 770 773 770 765 764 765 770 772 768 764 765 767 768 769 773 775 776 777 779 779
774 773 773 773 772 772 772 772 771 771 771 771 770 771 772 771 771 770 771 773 765 757 757 758 758 756 753 752 752 753 757 758 756 752 748 751 755 758 761 764 768 770 770 771 773 779 780 774 772 774 777 777 778 783 782 780 782 782 781 780 780 785 784 778 774 775 778 777 775 774 772 767 765 763 764 772 773 766 765 768 768 769 769 769 771 772 774 775
773 773 773 772 772 772 771 771 771 771 771 770 771 771 771 770 770 769 770 773 771 760 754 755 754 753 752 750 749 752 755 756 756 751 747 750 756 759 760 762 767 770 771 770 772 778 775 770 773 776 775 774 775 779 779 777 780 782 780 778 778 779 780 780 779 776 776 780 779 776 776 771 769 768 762 769 775 768 767 769 767 769 769 768 769 770 771 771
773 773 772 772 772 771 771 771 770 771 770 770 770 770 770 769 768 768 770 776 775 762 754 753 753 751 749 749 750 751 753 754 751 748 747 748 753 758 760 761 765 769 772 773 775 775 770 770 772 771 773 775 775 776 776 776 779 782 777 773 773 774 775 779 781 780 779 783 784 783 785 779 772 770 766 768 770 764 768 768 763 764 767 770 770 768 769 769
773 773 772 772 772 771 771 771 771 771 770 770 770 770 769 768 768 767 772 781 776 763 756 755 755 752 748 750 750 750 756 755 747 745 747 747 748 753 759 763 765 768 771 773 774 772 769 770 771 770 772 775 776 776 776 776 781 783 775 770 775 776 775 778 779 782 785 788 789 790 791 787 777 766 765 773 769 761 764 763 761 765 766 767 768 766 767 767
773 773 772 772 772 772 771 771 771 771 771 771 770 769 769 767 767 766 772 785 781 766 760 758 756 752 749 750 749 753 763 757 746 746 746 747 748 750 758 764 765 767 769 772 774 772 769 767 768 770 770 773 775 773 774 777 779 779 773 771 776 774 774 779 779 781 786 788 790 789 788 792 787 771 767 775 770 760 760 757 757 765 768 767 766 765 765 764
773 773 772 772 772 772 771 771 772 771 771 771 769 769 768 766 767 767 777 792 783 764 759 757 751 748 748 749 749 752 757 753 752 752 745 746 749 751 758 762 763 766 767 772 775 773 769 764 763 765 768 772 770 766 770 774 771 771 774 774 775 775 776 779 780 784 790 791 789 789 789 794 792 776 769 774 770 763 762 758 758 764 766 764 762 762 761 759
773 772 772 772 771 772 771 771 771 771 771 770 769 768 767 766 766 771 785 792 776 760 758 754 750 749 749 750 752 752 752 752 755 753 746 748 749 750 758 761 762 766 768 771 772 769 769 766 764 764 765 765 762 764 769 768 767 771 776 777 777 783 785 785 786 785 791 796 791 786 788 794 793 778 769 771 770 767 765 763 765 766 764 762 761 759 757 756
773 772 772 772 771 771 771 771 770 770 770 769 769 767 765 767 771 781 793 788 773 763 758 754 754 755 754 755 756 755 755 754 753 751 749 751 750 750 757 760 760 764 769 772 770 768 767 767 767 763 761 759 759 769 775 770 772 774 772 773 776 783 785 788 792 788 794 802 793 788 790 794 796 783 770 772 774 774 771 768 768 768 766 765 762 757 754 753
773 772 772 771 771 771 770 771 770 770 770 768 768 766 766 773 780 791 793 779 771 767 759 758 759 757 759 762 761 759 758 756 754 755 754 754 755 755 759 762 763 768 773 771 769 771 768 765 766 760 757 760 758 766 775 773 775 774 770 772 778 786 787 791 794 793 802 804 794 797 799 795 797 785 772 777 780 780 778 773 771 770 769 768 763 756 752 751
772 772 771 771 771 771 770 770 769 769 769 767 767 766 771 781 787 791 785 773 774 772 765 766 763 760 763 764 765 765 762 761 760 759 760 761 761 760 763 766 766 772 780 778 773 772 765 761 765 761 756 759 758 764 773 773 773 773 773 778 785 795 799 799 801 802 806 801 797 806 802 794 794 782 774 780 780 779 780 776 774 773 771 768 763 756 751 751
772 771 771 771 770 770 770 770 769 769 768 767 767 768 776 788 790 789 783 777 777 771 766 767 765 766 767 765 768 769 765 766 765 763 764 765 765 765 768 771 769 771 779 784 782 775 767 763 764 761 757 758 759 764 770 771 772 772 774 780 788 800 809 810 812 814 810 798 799 807 801 794 792 782 779 782 780 780 779 776 775 773 772 769 763 757 753 752
771 771 771 770 770 770 769 769 769 768 767 766 768 772 782 791 789 785 782 778 775 768 766 769 768 768 769 770 773 771 768 769 767 766 766 766 768 769 769 772 772 771 774 782 784 781 780 774 765 761 762 761 758 760 763 764 769 774 775 778 784 791 798 802 803 803 800 797 802 807 799 791 787 783 782 780 779 781 778 777 777 774 772 769 763 758 755 755
770 770 770 770 770 770 769 769 768 767 767 767 771 779 787 788 787 785 781 775 772 769 769 771 769 770 773 775 776 773 771 771 770 769 769 770 773 772 771 772 773 772 774 780 784 785 787 779 766 764 765 761 759 760 761 761 769 781 781 778 780 780 782 796 806 803 799 799 801 802 796 789 785 783 781 779 779 781 780 780 779 775 772 768 764 762 759 759
770 770 770 769 770 770 769 768 768 767 768 768 775 784 786 783 783 783 777 772 772 771 771 772 771 773 778 778 778 776 772 772 773 771 771 775 778 776 775 774 772 772 773 777 782 784 785 777 766 765 764 762 762 762 761 762 768 780 782 775 778 777 775 791 810 815 810 803 800 800 793 787 787 783 779 781 782 781 781 781 779 776 772 767 767 766 763 762
770 769 770 770 770 769 769 768 768 767 768 771 777 784 784 780 778 777 774 772 772 771 773 777 776 777 781 781 780 779 774 774 776 775 775 779 779 777 776 774 772 772 772 774 777 780 783 777 767 767 765 763 766 763 762 764 766 773 777 773 776 779 778 784 797 809 814 807 802 802 795 788 788 786 782 783 784 782 782 781 779 777 773 770 771 769 767 765
770 769 770 770 770 769 768 768 767 767 769 773 781 785 784 780 776 774 773 772 772 771 773 779 778 778 782 782 781 781 778 777 779 780 779 780 781 779 778 777 772 771 773 773 773 778 783 778 771 772 771 767 766 766 766 767 767 768 769 772 777 780 781 785 792 799 807 809 804 802 805 798 787 782 780 781 784 783 781 781 778 777 775 774 773 772 770 768
769 770 771 770 770 769 768 767 767 768 771 777 784 785 782 779 775 773 773 773 772 772 775 777 778 779 781 781 780 781 780 780 781 783 781 781 783 781 781 781 774 771 774 773 773 778 782 782 777 773 773 771 767 769 772 771 770 769 769 773 778 780 784 788 793 795 797 806 808 803 803 794 781 780 778 776 782 783 780 780 778 777 777 776 775 774 772 771
771 772 772 770 769 768 767 767 768 770 774 781 786 783 780 778 775 772 772 772 771 772 775 777 778 778 779 780 781 780 780 780 780 783 783 782 782 782 783 784 779 774 773 771 775 779 781 784 783 775 772 774 773 773 775 773 772 773 773 776 779 784 790 790 793 798 795 799 808 807 799 785 780 788 784 776 781 782 780 780 778 778 777 776 777 776 774 774
775 775 773 770 768 768 767 767 773 779 781 784 787 783 779 778 775 774 772 771 771 771 773 775 776 777 777 779 781 779 780 781 780 781 782 781 783 785 785 786 784 779 773 771 777 781 781 785 786 780 775 775 774 776 779 778 778 777 775 778 778 781 789 792 797 803 799 798 804 806 798 783 780 789 785 779 781 781 782 782 778 778 777 777 778 777 776 775
778 777 774 770 768 767 767 772 783 789 784 782 785 783 780 778 777 776 773 772 772 771 772 773 775 777 777 777 780 780 779 780 782 781 780 782 786 787 786 787 785 781 777 778 783 784 784 786 786 783 780 778 777 782 787 785 782 780 781 784 783 781 784 789 795 797 797 801 806 806 800 786 782 787 783 780 782 783 785 784 779 779 778 778 779 777 777 777
782 779 773 770 769 767 769 776 784 787 784 783 785 783 781 780 778 777 776 775 775 774 774 773 774 776 776 777 779 779 779 779 781 781 780 784 788 787 788 787 782 780 780 782 785 784 785 787 789 787 783 780 777 781 786 785 781 781 784 788 788 785 783 785 789 790 792 798 801 803 801 788 781 785 783 781 783 783 783 783 781 780 778 779 780 779 779 779
786 783 777 773 769 766 773 781 783 784 786 787 785 782 781 781 779 778 779 778 777 777 776 775 776 776 777 779 779 778 781 781 781 783 784 787 787 786 787 786 781 781 782 784 784 782 784 789 792 794 793 789 784 783 783 782 781 783 786 789 788 787 788 789 792 793 793 797 798 795 795 788 782 784 783 781 783 781 781 783 782 780 779 780 781 781 782 781
787 784 781 778 772 770 780 789 788 786 789 791 787 785 784 781 779 779 780 780 780 780 779 779 780 779 779 781 780 781 784 783 783 786 787 789 789 786 786 786 785 784 782 784 784 781 785 791 791 793 799 801 796 791 787 785 787 788 788 788 786 786 787 786 790 795 795 800 802 792 788 787 783 783 782 781 782 780 780 782 782 781 782 782 782 783 783 783
788 785 784 782 779 781 789 796 794 791 792 792 789 788 789 785 781 780 779 780 782 782 783 783 782 781 782 783 782 784 787 787 787 788 788 790 790 789 788 787 787 786 782 782 784 784 789 792 790 790 793 795 792 788 790 792 790 788 787 787 786 787 788 786 791 795 792 796 799 790 786 787 782 780 781 780 780 780 780 781 781 782 783 783 783 784 785 785
792 793 795 792 788 789 793 796 798 796 796 795 791 791 793 791 787 782 779 780 782 783 784 787 786 783 783 785 785 787 790 790 790 789 792 795 793 791 790 789 789 787 783 783 784 785 790 792 793 793 789 789 789 786 791 795 790 786 787 786 785 786 789 788 788 789 790 793 793 787 785 786 781 778 779 778 778 779 780 782 782 783 784 784 786 786 786 786
796 799 804 802 797 796 796 797 800 799 798 797 795 795 796 793 791 788 784 782 783 784 784 787 789 788 788 788 787 788 790 791 791 793 796 797 794 791 788 789 791 789 786 786 785 788 791 791 796 798 791 790 793 792 795 797 792 790 789 786 784 786 789 787 784 785 788 787 784 783 783 781 778 777 776 775 776 777 779 783 785 785 785 786 788 787 787 787
802 803 806 805 803 803 802 801 802 801 798 798 797 798 799 796 794 795 793 787 785 787 787 787 790 791 792 791 789 789 790 789 791 797 798 796 797 795 790 789 792 791 789 788 789 792 793 791 796 800 794 790 792 793 797 797 794 792 789 787 787 788 788 786 783 784 786 782 780 785 786 781 778 777 773 775 782 783 783 785 786 785 785 787 787 787 786 787
809 809 810 807 805 806 805 804 803 800 799 801 800 800 802 800 798 798 796 792 789 789 790 790 791 793 794 793 789 788 790 789 789 794 797 796 797 797 793 791 792 792 790 790 793 794 793 794 799 799 796 794 790 790 794 794 794 792 788 788 790 790 791 792 790 789 789 785 783 789 792 787 782 781 778 781 788 787 785 785 784 784 787 788 787 787 787 787
813 814 814 811 808 807 806 806 807 803 801 805 806 803 802 801 801 802 797 793 794 793 792 792 794 795 796 795 793 792 794 795 791 790 792 793 793 792 792 792 793 793 791 792 793 792 792 798 800 797 799 799 791 787 788 789 794 796 793 791 790 786 785 785 785 786 784 780 780 787 790 783 779 782 784 784 786 783 782 783 782 785 788 786 785 785 786 786
814 814 814 812 809 810 810 809 809 806 805 810 811 808 805 802 803 804 797 793 796 797 796 796 795 795 796 796 797 798 799 799 794 792 792 792 791 791 791 792 794 794 793 794 795 795 793 794 795 798 802 801 794 790 791 794 799 796 789 785 782 780 779 777 778 780 779 776 776 779 778 774 775 781 781 781 783 781 780 781 782 784 786 784 784 784 784 784